Weather History for KFCM - December, 2014

Change the Weather History Date:

Thursday, December 11, 2014

  Actual Average Record
Temperature  
Mean Temperature 30 °F -  
Max Temperature 33 °F 31 °F 48 °F (2001)
Min Temperature 27 °F 17 °F -8 °F (2013)
Degree Days  
Heating Degree Days 36    
Moisture  
Dew Point 28 °F    
Average Humidity 92    
Maximum Humidity 100    
Minimum Humidity 88    
Precipitation  
Precipitation 0.00 in - - ()
Sea Level Pressure  
Sea Level Pressure 30.24 in    
Wind  
Wind Speed 7 mph (South)    
Max Wind Speed 12 mph    
Max Gust Speed -    
Visibility 4 miles    
Events      
Averages and records for this station are not official NWS values.
T = Trace of Precipitation, MM = Missing Value Source: NWS Daily Summary

Daily Weather History Graph

Daily Weather History Graph

Search for Another Location

Airport or City:

Trip Planner

Search our weather history database for the weather conditions in past years. The results will help you decide how hot, cold, wet, or windy it might be!

Date:

Astronomy

Dec. 11, 2014 Rise Set
Actual Time 7:41 AM CST 4:32 PM CST
Civil Twilight 7:07 AM CST 5:06 PM CST
Nautical Twilight 6:30 AM CST 5:43 PM CST
Astronomical Twilight 5:55 AM CST 6:18 PM CST
Moon 9:53 PM CST (12/11) 10:56 AM CST (12/11)
Length of Visible Light 9h 58m
Length of Day
8h 51m
Waning Gibbous, 75% of the Moon is Illuminated
Dec 11
Waning Gibbous
Dec 14
Last Quarter
Dec 21
New
Dec 28
First Quarter
Jan 4
Full

Hourly Weather History & Observations

Time (CST) Temp. Windchill Dew Point Humidity Pressure Visibility Wind Dir Wind Speed Gust Speed Precip Events Conditions
12:53 AM 28.0 °F 20.0 °F 25.0 °F 88% 30.29 in 4.0 mi SSW 8.1 mph - N/A   Overcast
1:53 AM 28.0 °F 20.8 °F 25.0 °F 88% 30.29 in 4.0 mi SSW 6.9 mph - N/A   Overcast
2:53 AM 28.0 °F 20.0 °F 25.0 °F 88% 30.28 in 4.0 mi South 8.1 mph - N/A   Overcast
3:53 AM 28.0 °F 20.8 °F 26.1 °F 92% 30.29 in 4.0 mi South 6.9 mph - N/A   Overcast
4:53 AM 28.0 °F 20.8 °F 26.1 °F 92% 30.27 in 4.0 mi South 6.9 mph - N/A   Overcast
5:53 AM 28.0 °F 20.0 °F 25.0 °F 88% 30.27 in 5.0 mi SSW 8.1 mph - N/A   Overcast
6:24 AM 28.0 °F 21.7 °F 26.1 °F 92% 30.24 in 5.0 mi SSW 5.8 mph - N/A   Overcast
6:53 AM 27.0 °F 17.3 °F 26.1 °F 96% 30.28 in 4.0 mi South 10.4 mph - N/A   Overcast
7:53 AM 28.0 °F 21.7 °F 26.1 °F 92% 30.29 in 4.0 mi South 5.8 mph - N/A   Overcast
8:53 AM 28.0 °F 20.0 °F 26.1 °F 92% 30.27 in 2.5 mi SSW 8.1 mph - N/A   Overcast
9:39 AM 28.0 °F 19.3 °F 26.1 °F 92% 30.24 in 3.0 mi SW 9.2 mph - N/A   Overcast
9:49 AM 28.4 °F 19.7 °F 26.6 °F 93% 30.24 in 3.0 mi SW 9.2 mph - N/A   Overcast
9:53 AM 28.0 °F 20.8 °F 26.1 °F 92% 30.29 in 3.0 mi SW 6.9 mph - N/A   Overcast
10:00 AM 28.0 °F 20.8 °F 26.1 °F 92% 30.25 in 2.0 mi SW 6.9 mph - N/A   Overcast
10:53 AM 28.0 °F 19.3 °F 27.0 °F 96% 30.27 in 2.0 mi South 9.2 mph - N/A   Overcast
11:53 AM 28.9 °F 19.2 °F 27.0 °F 92% 30.25 in 2.0 mi SSW 11.5 mph - N/A   Overcast
12:00 PM 28.9 °F 21.9 °F 27.0 °F 92% 30.22 in 4.0 mi SSW 6.9 mph - N/A   Overcast
12:53 PM 28.9 °F 19.8 °F 27.0 °F 92% 30.24 in 4.0 mi SSW 10.4 mph - N/A   Overcast
1:53 PM 30.0 °F 21.7 °F 27.0 °F 88% 30.23 in 5.0 mi South 9.2 mph - N/A   Overcast
2:53 PM 30.0 °F 23.2 °F 27.0 °F 88% 30.23 in 6.0 mi SSE 6.9 mph - N/A   Overcast
3:53 PM 30.0 °F 24.1 °F 27.0 °F 88% 30.23 in 5.0 mi SE 5.8 mph - N/A   Overcast
4:53 PM 30.0 °F 24.1 °F 28.0 °F 92% 30.23 in 6.0 mi SSE 5.8 mph - N/A   Overcast
5:53 PM 30.0 °F 25.2 °F 28.0 °F 92% 30.24 in 6.0 mi SE 4.6 mph - N/A   Overcast
6:10 PM 30.0 °F - 28.9 °F 96% 30.20 in 6.0 mi Calm Calm - N/A   Overcast
6:53 PM 30.9 °F - 28.0 °F 89% 30.24 in 5.0 mi Calm Calm - N/A   Overcast
7:53 PM 30.0 °F 26.5 °F 30.0 °F 100% 30.23 in 4.0 mi SSE 3.5 mph - N/A   Overcast
8:14 PM 30.9 °F - 28.9 °F 92% 30.20 in 4.0 mi Calm Calm - N/A   Overcast
8:53 PM 30.9 °F 26.2 °F 30.0 °F 96% 30.23 in 3.0 mi South 4.6 mph - N/A   Overcast
9:16 PM 30.9 °F 24.3 °F 30.0 °F 96% 30.18 in 2.5 mi South 6.9 mph - N/A   Overcast
9:53 PM 30.9 °F 23.5 °F 30.0 °F 96% 30.22 in 2.5 mi South 8.1 mph - N/A   Overcast
10:53 PM 32.0 °F 24.8 °F 30.9 °F 96% 30.22 in 2.5 mi South 8.1 mph - N/A   Overcast
11:02 PM 32.0 °F 26.4 °F 30.9 °F 96% 30.18 in 3.0 mi South 5.8 mph - N/A   Overcast
11:33 PM 32.0 °F 24.2 °F 30.9 °F 96% 30.19 in 4.0 mi South 9.2 mph - N/A   Overcast
11:53 PM 33.1 °F 27.7 °F 30.9 °F 92% 30.22 in 4.0 mi SSW 5.8 mph - N/A   Overcast